Погода в Маане

Иордания     30°12′26″N   35°43′18″E
темп.,
°C
ветер,
м/с
пор.,
м/с
влажн.,
%
обл.,
%
осадки,
мм/ч
давл.,
гПа
погр.,
м
10 августа, ср
ср1000:00+25зсз46390 0.0 1008168
03:00+24зсз35390 0.0 1008165
06:00+22зсз46340 0.0 1008121
09:00+27зсз11240 0.0 1008423
12:00+32юв45220 0.0 10071310
15:00+36зюз25170 0.0 10042143
18:00+31зсз76280 0.0 1005464
21:00+25сз67400 0.0 1007266
11 августа, чт
чт1100:00+23зсз46530 0.0 1008177
03:00+23зсз34410 0.0 1008127
06:00+22зсз22360 0.0 100843
09:00+26ююз01290 0.0 1008437
12:00+32юв45230 0.0 10071398
15:00+35з55200 0.0 10051544
18:00+32зсз65250 0.0 1006587
21:00+27сз45350 0.0 1008198
12 августа, пт
пт1200:00+26св11380 0.0 1008106
03:00+26зсз11390 0.0 100815
06:00+24вюв11430 0.0 100811
09:00+27юв33370 0.0 1009472
12:00+32юв44260 0.0 10071119
15:00+38зюз37170 0.0 10043146
18:00+32сз77240 0.0 1006493
21:00+27зсз56340 0.0 1008206
13 августа, сб
сб1300:00+27зсз01370 0.0 100929
03:00+25з34420 0.0 100862
06:00+24з34380 0.0 100959
09:00+28з12260 0.0 1008443
12:00+33зсз03200 0.0 10071597
15:00+35зсз75200 0.0 10051190
18:00+30сз87280 0.0 1006533
21:00+25зсз57360 0.0 1008261
14 августа, вс
вс1400:00+24зсз57410 0.0 1007154
03:00+23з23410 0.0 100861
06:00+22зсз35300 0.0 100862
09:00+27ю12210 0.0 1008420
12:00+33юв34190 0.0 10061386
15:00+36зсз44170 0.0 10041741
18:00+32сз65240 0.0 1005515
21:00+26зсз56390 0.0 1007200